OAL929 FSIA-FIMP

Flight info

Callsign OAL929
Flight time 2h 16m
Altitude 37000
Route NESID T129 RERUS UM313 ALRAN UT400 DUNRI
Aircraft B738/M-V/N

Departure

Time 2026-05-07 11:33
Airport Seychelles International Airport (FSIA)

Arrival

Time 2026-05-07 13:49
Airport Sir Seewoosagur Ramgoolam International Airport (FIMP)
Time Latitude Longitude Altitude Speed Heading
2026-05-07 11:27 -4.68004 55.52998 22 ft 0 kts 305°
2026-05-07 11:33 -4.67967 55.52944 20 ft 41 kts 304°
2026-05-07 11:33 -4.67636 55.52469 20 ft 123 kts 305°
2026-05-07 11:33 -4.67007 55.51575 77 ft 186 kts 305°
2026-05-07 11:33 -4.66271 55.50557 1060 ft 182 kts 309°
2026-05-07 11:34 -4.65172 55.49903 1879 ft 197 kts 353°
2026-05-07 11:34 -4.63766 55.50211 2160 ft 224 kts 36°
2026-05-07 11:34 -4.62855 55.51504 2444 ft 240 kts 76°
2026-05-07 11:34 -4.62938 55.53191 2752 ft 256 kts 109°
2026-05-07 11:35 -4.63872 55.54727 3396 ft 264 kts 136°
2026-05-07 11:35 -4.65454 55.55645 4217 ft 266 kts 162°
2026-05-07 11:35 -4.67275 55.56029 5022 ft 270 kts 171°
2026-05-07 11:35 -4.69155 55.56272 5792 ft 274 kts 172°
2026-05-07 11:36 -4.71062 55.56489 6542 ft 277 kts 172°
2026-05-07 11:36 -4.72988 55.56710 7257 ft 280 kts 172°
2026-05-07 11:36 -4.74936 55.56942 7986 ft 283 kts 172°
2026-05-07 11:36 -4.76905 55.57185 8690 ft 287 kts 172°
2026-05-07 11:37 -4.78899 55.57438 9423 ft 290 kts 172°
2026-05-07 11:37 -4.80911 55.57697 10088 ft 295 kts 172°
2026-05-07 11:37 -4.82984 55.57968 10300 ft 317 kts 172°
2026-05-07 11:37 -4.85244 55.58265 10466 ft 338 kts 172°
2026-05-07 11:38 -4.87642 55.58582 10603 ft 358 kts 172°
2026-05-07 11:38 -4.90164 55.58916 10849 ft 371 kts 172°
2026-05-07 11:38 -4.92747 55.59258 11337 ft 376 kts 172°
2026-05-07 11:38 -4.95350 55.59602 11915 ft 379 kts 172°
2026-05-07 11:39 -4.97975 55.59951 12473 ft 382 kts 172°
2026-05-07 11:39 -5.00626 55.60303 13000 ft 386 kts 172°
2026-05-07 11:39 -5.03297 55.60658 13516 ft 389 kts 172°
2026-05-07 11:39 -5.05996 55.61017 13976 ft 393 kts 172°
2026-05-07 11:40 -5.08678 55.61374 14435 ft 395 kts 172°
2026-05-07 11:40 -5.11413 55.61738 14901 ft 398 kts 172°
2026-05-07 11:40 -5.14161 55.62103 15356 ft 400 kts 172°
2026-05-07 11:40 -5.16934 55.62476 15793 ft 403 kts 171°
2026-05-07 11:41 -5.19719 55.62937 16228 ft 406 kts 169°
2026-05-07 11:41 -5.22519 55.63464 16674 ft 408 kts 168°
2026-05-07 11:41 -5.25306 55.64011 17093 ft 411 kts 168°
2026-05-07 11:41 -5.28106 55.64564 17507 ft 414 kts 168°
2026-05-07 11:42 -5.30953 55.65122 17907 ft 417 kts 168°
2026-05-07 11:42 -5.33815 55.65677 18281 ft 420 kts 168°
2026-05-07 11:42 -5.36687 55.66229 18626 ft 422 kts 168°
2026-05-07 11:42 -5.39571 55.66779 18968 ft 424 kts 168°
2026-05-07 11:43 -5.42486 55.67334 19298 ft 426 kts 168°
2026-05-07 11:43 -5.45404 55.67888 19625 ft 429 kts 168°
2026-05-07 11:43 -5.48338 55.68444 19942 ft 431 kts 168°
2026-05-07 11:43 -5.51288 55.69004 20254 ft 434 kts 168°
2026-05-07 11:44 -5.54220 55.69560 20553 ft 436 kts 168°
2026-05-07 11:44 -5.57235 55.70133 20856 ft 438 kts 168°
2026-05-07 11:44 -5.60230 55.70701 21154 ft 440 kts 168°
2026-05-07 11:44 -5.63243 55.71273 21432 ft 443 kts 168°
2026-05-07 11:45 -5.66288 55.71852 21706 ft 445 kts 168°
2026-05-07 11:45 -5.69302 55.72424 21975 ft 447 kts 168°
2026-05-07 11:45 -5.72360 55.73004 22236 ft 450 kts 168°
2026-05-07 11:45 -5.75483 55.73597 22504 ft 452 kts 168°
2026-05-07 11:46 -5.78541 55.74178 22751 ft 454 kts 168°
2026-05-07 11:46 -5.81644 55.74767 23009 ft 456 kts 168°
2026-05-07 11:46 -5.84760 55.75360 23253 ft 458 kts 168°
2026-05-07 11:46 -5.87940 55.75964 23463 ft 460 kts 168°
2026-05-07 11:47 -5.91086 55.76562 23664 ft 462 kts 168°
2026-05-07 11:47 -5.94221 55.77158 23869 ft 463 kts 168°
2026-05-07 11:47 -5.97386 55.77760 24060 ft 465 kts 168°
2026-05-07 11:47 -6.00566 55.78364 24256 ft 466 kts 168°
2026-05-07 11:48 -6.03765 55.78972 24457 ft 467 kts 169°
2026-05-07 11:48 -6.06957 55.79579 24642 ft 469 kts 169°
2026-05-07 11:48 -6.10179 55.80192 24816 ft 471 kts 169°
2026-05-07 11:48 -6.13399 55.80805 25004 ft 472 kts 169°
2026-05-07 11:49 -6.16622 55.81418 25181 ft 473 kts 169°
2026-05-07 11:49 -6.19859 55.82034 25348 ft 475 kts 169°
2026-05-07 11:49 -6.23118 55.82654 25514 ft 477 kts 169°
2026-05-07 11:49 -6.26362 55.83271 25700 ft 478 kts 169°
2026-05-07 11:50 -6.29629 55.83893 25877 ft 479 kts 169°
2026-05-07 11:50 -6.32901 55.84516 26023 ft 481 kts 169°
2026-05-07 11:50 -6.36188 55.85141 26177 ft 482 kts 169°
2026-05-07 11:50 -6.39480 55.85768 26360 ft 483 kts 169°
2026-05-07 11:51 -6.42794 55.86399 26557 ft 484 kts 169°
2026-05-07 11:51 -6.46086 55.87026 26695 ft 485 kts 169°
2026-05-07 11:51 -6.49403 55.87658 26814 ft 487 kts 169°
2026-05-07 11:51 -6.52764 55.88298 26962 ft 489 kts 169°
2026-05-07 11:52 -6.56098 55.88933 27147 ft 489 kts 169°
2026-05-07 11:52 -6.59437 55.89570 27316 ft 490 kts 169°
2026-05-07 11:52 -6.62798 55.90210 27436 ft 491 kts 169°
2026-05-07 11:52 -6.66142 55.90847 27552 ft 493 kts 169°
2026-05-07 11:53 -6.69511 55.91490 27688 ft 494 kts 169°
2026-05-07 11:53 -6.72883 55.92133 27853 ft 494 kts 169°
2026-05-07 11:53 -6.76292 55.92783 28023 ft 495 kts 169°
2026-05-07 11:53 -6.79674 55.93428 28168 ft 496 kts 169°
2026-05-07 11:54 -6.83034 55.94069 28350 ft 495 kts 169°
2026-05-07 11:54 -6.86411 55.94713 28592 ft 494 kts 169°
2026-05-07 11:54 -6.89757 55.95352 28841 ft 493 kts 170°
2026-05-07 11:54 -6.93152 55.95999 29039 ft 493 kts 170°
2026-05-07 11:55 -6.96531 55.96644 29201 ft 493 kts 170°
2026-05-07 11:55 -6.99886 55.97284 29384 ft 493 kts 170°
2026-05-07 11:55 -7.03243 55.97925 29625 ft 492 kts 170°
2026-05-07 11:55 -7.06584 55.98563 29898 ft 491 kts 170°
2026-05-07 11:56 -7.09924 55.99201 30109 ft 490 kts 170°
2026-05-07 11:56 -7.13267 55.99840 30269 ft 490 kts 170°
2026-05-07 11:56 -7.16548 56.00467 30414 ft 491 kts 170°
2026-05-07 11:56 -7.19908 56.01109 30597 ft 491 kts 169°
2026-05-07 11:57 -7.23256 56.01748 30841 ft 489 kts 169°
2026-05-07 11:57 -7.26594 56.02386 31079 ft 488 kts 169°
2026-05-07 11:57 -7.29931 56.03024 31286 ft 487 kts 169°
2026-05-07 11:57 -7.33262 56.03661 31449 ft 488 kts 169°
2026-05-07 11:58 -7.36600 56.04299 31619 ft 489 kts 169°
2026-05-07 11:58 -7.39936 56.04937 31851 ft 487 kts 169°
2026-05-07 11:58 -7.43264 56.05573 32125 ft 486 kts 169°
2026-05-07 11:58 -7.46586 56.06209 32373 ft 485 kts 169°
2026-05-07 11:59 -7.49852 56.06834 32559 ft 485 kts 169°
2026-05-07 11:59 -7.53169 56.07469 32728 ft 486 kts 169°
2026-05-07 11:59 -7.56489 56.08104 32919 ft 486 kts 169°
2026-05-07 11:59 -7.59803 56.08739 33181 ft 484 kts 169°
2026-05-07 12:00 -7.63110 56.09368 33457 ft 483 kts 170°
2026-05-07 12:00 -7.66437 56.09887 33653 ft 483 kts 172°
2026-05-07 12:00 -7.69777 56.10298 33821 ft 484 kts 174°
2026-05-07 12:00 -7.71995 56.10542 33954 ft 483 kts 174°
2026-05-07 12:01 -7.76416 56.11009 34266 ft 481 kts 174°
2026-05-07 12:01 -7.79738 56.11363 34535 ft 479 kts 174°
2026-05-07 12:01 -7.83040 56.11726 34770 ft 477 kts 174°
2026-05-07 12:01 -7.86340 56.12100 34951 ft 477 kts 174°
2026-05-07 12:02 -7.89633 56.12480 35117 ft 477 kts 174°
2026-05-07 12:02 -7.92937 56.12866 35317 ft 476 kts 174°
2026-05-07 12:02 -7.96216 56.13251 35561 ft 474 kts 174°
2026-05-07 12:02 -7.98396 56.13507 35719 ft 473 kts 174°
2026-05-07 12:03 -8.01670 56.13892 35909 ft 472 kts 174°
2026-05-07 12:03 -8.04932 56.14276 36057 ft 473 kts 174°
2026-05-07 12:03 -8.08189 56.14658 36219 ft 472 kts 174°
2026-05-07 12:03 -8.11423 56.15037 36424 ft 471 kts 174°
2026-05-07 12:04 -8.14675 56.15418 36664 ft 469 kts 174°
2026-05-07 12:04 -8.17911 56.15797 36854 ft 468 kts 174°
2026-05-07 12:04 -8.21100 56.16171 36842 ft 471 kts 174°
2026-05-07 12:05 -8.27611 56.16934 36863 ft 470 kts 174°
2026-05-07 12:05 -8.34061 56.17691 36871 ft 469 kts 174°
2026-05-07 12:06 -8.40534 56.18451 36872 ft 467 kts 174°
2026-05-07 12:06 -8.47007 56.19210 36860 ft 467 kts 174°
2026-05-07 12:07 -8.53411 56.19963 36851 ft 466 kts 174°
2026-05-07 12:07 -8.59850 56.20719 36866 ft 466 kts 174°
2026-05-07 12:08 -8.66300 56.21477 36870 ft 466 kts 174°
2026-05-07 12:08 -8.72745 56.22234 36858 ft 467 kts 174°
2026-05-07 12:09 -8.79201 56.22993 36870 ft 468 kts 174°
2026-05-07 12:09 -8.85650 56.23752 36859 ft 469 kts 174°
2026-05-07 12:10 -8.92149 56.24517 36860 ft 470 kts 174°
2026-05-07 12:10 -8.98614 56.25277 36866 ft 470 kts 175°
2026-05-07 12:11 -9.05106 56.26042 36875 ft 471 kts 174°
2026-05-07 12:11 -9.11644 56.26812 36863 ft 472 kts 175°
2026-05-07 12:12 -9.18153 56.27579 36882 ft 472 kts 175°
2026-05-07 12:12 -9.24681 56.28349 36860 ft 472 kts 175°
2026-05-07 12:13 -9.31198 56.29117 36879 ft 472 kts 175°
2026-05-07 12:13 -9.37708 56.29885 36864 ft 472 kts 175°
2026-05-07 12:14 -9.44229 56.30655 36877 ft 471 kts 175°
2026-05-07 12:14 -9.50742 56.31424 36869 ft 471 kts 175°
2026-05-07 12:15 -9.57197 56.32186 36872 ft 470 kts 175°
2026-05-07 12:15 -9.63711 56.32956 36874 ft 470 kts 175°
2026-05-07 12:16 -9.70200 56.33723 36872 ft 469 kts 175°
2026-05-07 12:16 -9.76663 56.34487 36876 ft 469 kts 175°
2026-05-07 12:17 -9.83123 56.35251 36874 ft 468 kts 175°
2026-05-07 12:17 -9.89601 56.36018 36873 ft 468 kts 175°
2026-05-07 12:18 -9.96019 56.36778 36875 ft 468 kts 175°
2026-05-07 12:18 -10.02478 56.37518 36875 ft 468 kts 176°
2026-05-07 12:19 -10.09001 56.38102 36875 ft 468 kts 177°
2026-05-07 12:19 -10.15477 56.38640 36882 ft 468 kts 177°
2026-05-07 12:20 -10.21962 56.39196 36874 ft 469 kts 176°
2026-05-07 12:20 -10.28429 56.39764 36880 ft 469 kts 176°
2026-05-07 12:21 -10.34938 56.40342 36877 ft 469 kts 176°
2026-05-07 12:21 -10.41433 56.40919 36885 ft 470 kts 176°
2026-05-07 12:22 -10.47951 56.41498 36879 ft 470 kts 176°
2026-05-07 12:22 -10.54484 56.42078 36883 ft 470 kts 176°
2026-05-07 12:23 -10.60960 56.42653 36873 ft 470 kts 177°
2026-05-07 12:23 -10.67514 56.43235 36893 ft 470 kts 177°
2026-05-07 12:24 -10.73992 56.43810 36882 ft 470 kts 177°
2026-05-07 12:24 -10.80529 56.44392 36885 ft 470 kts 177°
2026-05-07 12:25 -10.87042 56.44971 36882 ft 470 kts 177°
2026-05-07 12:25 -10.93575 56.45552 36885 ft 470 kts 177°
2026-05-07 12:26 -11.00049 56.46129 36880 ft 470 kts 177°
2026-05-07 12:26 -11.06567 56.46709 36893 ft 470 kts 177°
2026-05-07 12:27 -11.13072 56.47289 36890 ft 470 kts 177°
2026-05-07 12:27 -11.19576 56.47869 36885 ft 470 kts 177°
2026-05-07 12:28 -11.26088 56.48449 36887 ft 471 kts 177°
2026-05-07 12:28 -11.32615 56.49032 36893 ft 471 kts 177°
2026-05-07 12:29 -11.39130 56.49613 36885 ft 471 kts 177°
2026-05-07 12:29 -11.45650 56.50196 36902 ft 471 kts 177°
2026-05-07 12:30 -11.52185 56.50780 36880 ft 472 kts 177°
2026-05-07 12:30 -11.58710 56.51363 36899 ft 471 kts 177°
2026-05-07 12:31 -11.65284 56.51951 36883 ft 472 kts 178°
2026-05-07 12:31 -11.71807 56.52535 36900 ft 471 kts 178°
2026-05-07 12:32 -11.78325 56.53118 36881 ft 471 kts 178°
2026-05-07 12:32 -11.84857 56.53703 36894 ft 471 kts 178°
2026-05-07 12:33 -11.94579 56.54575 36889 ft 470 kts 178°
2026-05-07 12:33 -12.01129 56.55162 36897 ft 469 kts 178°
2026-05-07 12:34 -12.07612 56.55744 36899 ft 469 kts 178°
2026-05-07 12:34 -12.14095 56.56325 36892 ft 468 kts 178°
2026-05-07 12:35 -12.20584 56.56908 36903 ft 468 kts 178°
2026-05-07 12:35 -12.27022 56.57487 36890 ft 468 kts 178°
2026-05-07 12:36 -12.33524 56.58071 36900 ft 467 kts 178°
2026-05-07 12:36 -12.39995 56.58653 36899 ft 468 kts 178°
2026-05-07 12:37 -12.46465 56.59235 36903 ft 468 kts 178°
2026-05-07 12:37 -12.52936 56.59818 36906 ft 468 kts 178°
2026-05-07 12:38 -12.59418 56.60401 36899 ft 469 kts 178°
2026-05-07 12:38 -12.65918 56.60987 36909 ft 469 kts 178°
2026-05-07 12:39 -12.72415 56.61573 36900 ft 470 kts 178°
2026-05-07 12:39 -12.78922 56.62160 36908 ft 470 kts 178°
2026-05-07 12:40 -12.85447 56.62749 36907 ft 471 kts 178°
2026-05-07 12:40 -12.91979 56.63338 36906 ft 471 kts 178°
2026-05-07 12:41 -12.98481 56.63926 36910 ft 471 kts 178°
2026-05-07 12:41 -13.05004 56.64516 36905 ft 472 kts 178°
2026-05-07 12:42 -13.11544 56.65107 36915 ft 471 kts 178°
2026-05-07 12:42 -13.18081 56.65699 36906 ft 471 kts 178°
2026-05-07 12:43 -13.24617 56.66291 36916 ft 471 kts 179°
2026-05-07 12:43 -13.31130 56.66881 36915 ft 471 kts 178°
2026-05-07 12:44 -13.37613 56.67468 36913 ft 470 kts 178°
2026-05-07 12:44 -13.44127 56.68059 36920 ft 470 kts 178°
2026-05-07 12:45 -13.50641 56.68650 36913 ft 470 kts 178°
2026-05-07 12:45 -13.57132 56.69240 36922 ft 469 kts 178°
2026-05-07 12:46 -13.63631 56.69830 36917 ft 468 kts 178°
2026-05-07 12:46 -13.70108 56.70419 36918 ft 468 kts 178°
2026-05-07 12:47 -13.76589 56.71008 36925 ft 467 kts 178°
2026-05-07 12:47 -13.83053 56.71596 36917 ft 467 kts 178°
2026-05-07 12:48 -13.89525 56.72186 36927 ft 466 kts 178°
2026-05-07 12:48 -13.95985 56.72774 36918 ft 466 kts 178°
2026-05-07 12:49 -14.02446 56.73363 36930 ft 465 kts 177°
2026-05-07 12:49 -14.08877 56.73949 36929 ft 465 kts 177°
2026-05-07 12:50 -14.15321 56.74537 36928 ft 464 kts 177°
2026-05-07 12:50 -14.21704 56.75120 36934 ft 464 kts 177°
2026-05-07 12:51 -14.28153 56.75709 36924 ft 463 kts 177°
2026-05-07 12:51 -14.34559 56.76295 36936 ft 463 kts 177°
2026-05-07 12:52 -14.40957 56.76880 36928 ft 462 kts 177°
2026-05-07 12:52 -14.47339 56.77463 36934 ft 461 kts 177°
2026-05-07 12:53 -14.53734 56.78049 36937 ft 461 kts 176°
2026-05-07 12:53 -14.60104 56.78632 36937 ft 460 kts 176°
2026-05-07 12:54 -14.66463 56.79215 36939 ft 459 kts 176°
2026-05-07 12:54 -14.72813 56.79798 36933 ft 459 kts 176°
2026-05-07 12:55 -14.79165 56.80381 36940 ft 458 kts 176°
2026-05-07 12:55 -14.85506 56.80964 36933 ft 457 kts 176°
2026-05-07 12:56 -14.91815 56.81543 36940 ft 456 kts 175°
2026-05-07 12:56 -14.98101 56.82121 36941 ft 455 kts 175°
2026-05-07 12:57 -15.04440 56.82704 36938 ft 454 kts 175°
2026-05-07 12:57 -15.10697 56.83279 36950 ft 453 kts 175°
2026-05-07 12:58 -15.16962 56.83854 36941 ft 453 kts 175°
2026-05-07 12:58 -15.23222 56.84430 36954 ft 452 kts 175°
2026-05-07 12:59 -15.29465 56.85005 36949 ft 451 kts 175°
2026-05-07 12:59 -15.35746 56.85583 36945 ft 450 kts 175°
2026-05-07 13:00 -15.41958 56.86156 36949 ft 450 kts 175°
2026-05-07 13:00 -15.48166 56.86728 36951 ft 450 kts 175°
2026-05-07 13:01 -15.54408 56.87304 36952 ft 449 kts 175°
2026-05-07 13:01 -15.60623 56.87878 36949 ft 449 kts 175°
2026-05-07 13:02 -15.66852 56.88454 36956 ft 449 kts 175°
2026-05-07 13:02 -15.73028 56.89025 36950 ft 449 kts 175°
2026-05-07 13:03 -15.79243 56.89600 36955 ft 448 kts 175°
2026-05-07 13:03 -15.85462 56.90175 36965 ft 448 kts 175°
2026-05-07 13:04 -15.91677 56.90751 36961 ft 448 kts 175°
2026-05-07 13:04 -15.97850 56.91323 36966 ft 448 kts 175°
2026-05-07 13:05 -16.04069 56.91899 36961 ft 448 kts 175°
2026-05-07 13:05 -16.10279 56.92475 36971 ft 448 kts 175°
2026-05-07 13:06 -16.16488 56.93052 36963 ft 448 kts 175°
2026-05-07 13:06 -16.22705 56.93630 36973 ft 448 kts 175°
2026-05-07 13:07 -16.28879 56.94203 36968 ft 448 kts 175°
2026-05-07 13:07 -16.35102 56.94782 36972 ft 449 kts 175°
2026-05-07 13:08 -16.41319 56.95361 36970 ft 449 kts 175°
2026-05-07 13:08 -16.47539 56.95941 36968 ft 449 kts 175°
2026-05-07 13:09 -16.53767 56.96521 36977 ft 449 kts 175°
2026-05-07 13:09 -16.59951 56.97097 36969 ft 449 kts 175°
2026-05-07 13:10 -16.66179 56.97679 36977 ft 449 kts 175°
2026-05-07 13:10 -16.72415 56.98261 36971 ft 450 kts 175°
2026-05-07 13:11 -16.78649 56.98844 36987 ft 449 kts 175°
2026-05-07 13:11 -16.84886 56.99427 36983 ft 450 kts 175°
2026-05-07 13:12 -16.91082 57.00006 36988 ft 450 kts 175°
2026-05-07 13:12 -16.97318 57.00590 36984 ft 450 kts 175°
2026-05-07 13:13 -17.03558 57.01175 36984 ft 450 kts 176°
2026-05-07 13:13 -17.09796 57.01760 36994 ft 450 kts 176°
2026-05-07 13:14 -17.15995 57.02341 36981 ft 450 kts 176°
2026-05-07 13:14 -17.22236 57.02927 36976 ft 450 kts 176°
2026-05-07 13:15 -17.28474 57.03514 36995 ft 450 kts 176°
2026-05-07 13:15 -17.34717 57.04100 36994 ft 450 kts 176°
2026-05-07 13:16 -17.40957 57.04687 36982 ft 450 kts 176°
2026-05-07 13:16 -17.47192 57.05274 36978 ft 450 kts 176°
2026-05-07 13:17 -17.53389 57.05858 36996 ft 450 kts 176°
2026-05-07 13:17 -17.59620 57.06445 37014 ft 449 kts 176°
2026-05-07 13:18 -17.65865 57.07034 36990 ft 450 kts 176°
2026-05-07 13:18 -17.72098 57.07623 36975 ft 450 kts 176°
2026-05-07 13:19 -17.78288 57.08208 36993 ft 450 kts 176°
2026-05-07 13:19 -17.84510 57.08796 37019 ft 449 kts 176°
2026-05-07 13:20 -17.90758 57.09387 37007 ft 449 kts 176°
2026-05-07 13:20 -17.96962 57.09975 36985 ft 450 kts 176°
2026-05-07 13:21 -18.03192 57.10508 36999 ft 450 kts 177°
2026-05-07 13:21 -18.09421 57.10985 37025 ft 449 kts 177°
2026-05-07 13:22 -18.15666 57.11464 37017 ft 449 kts 177°
2026-05-07 13:22 -18.21905 57.11953 36986 ft 450 kts 177°
2026-05-07 13:23 -18.28155 57.12446 36996 ft 450 kts 177°
2026-05-07 13:23 -18.34365 57.12938 37031 ft 450 kts 177°
2026-05-07 13:24 -18.40648 57.13436 37024 ft 450 kts 177°
2026-05-07 13:24 -18.46882 57.13930 37000 ft 450 kts 177°
2026-05-07 13:25 -18.53109 57.14423 36916 ft 452 kts 177°
2026-05-07 13:25 -18.56267 57.14673 36206 ft 459 kts 177°
2026-05-07 13:25 -18.59449 57.14926 35829 ft 452 kts 177°
2026-05-07 13:26 -18.62588 57.15175 34865 ft 460 kts 176°
2026-05-07 13:26 -18.65768 57.15427 34514 ft 453 kts 176°
2026-05-07 13:26 -18.68913 57.15677 33453 ft 463 kts 176°
2026-05-07 13:26 -18.72121 57.15933 32847 ft 457 kts 176°
2026-05-07 13:27 -18.75317 57.16187 32262 ft 457 kts 176°
2026-05-07 13:27 -18.78494 57.16439 31159 ft 466 kts 176°
2026-05-07 13:27 -18.81672 57.16692 30574 ft 459 kts 176°
2026-05-07 13:27 -18.84855 57.16946 30219 ft 452 kts 175°
2026-05-07 13:28 -18.88016 57.17197 29389 ft 453 kts 175°
2026-05-07 13:28 -18.91086 57.17442 28664 ft 451 kts 175°
2026-05-07 13:28 -18.94191 57.17689 28347 ft 439 kts 175°
2026-05-07 13:28 -18.97235 57.17932 27909 ft 434 kts 175°
2026-05-07 13:29 -19.00262 57.18173 27144 ft 436 kts 175°
2026-05-07 13:29 -19.03245 57.18411 26560 ft 434 kts 175°
2026-05-07 13:29 -19.06223 57.18649 26198 ft 426 kts 175°
2026-05-07 13:29 -19.09201 57.18887 25588 ft 428 kts 175°
2026-05-07 13:30 -19.12148 57.19122 25022 ft 427 kts 175°
2026-05-07 13:30 -19.15094 57.19357 24529 ft 425 kts 175°
2026-05-07 13:30 -19.18069 57.19595 23977 ft 425 kts 175°
2026-05-07 13:30 -19.21013 57.19831 23389 ft 425 kts 175°
2026-05-07 13:31 -19.23945 57.20065 22800 ft 424 kts 175°
2026-05-07 13:31 -19.26861 57.20298 22252 ft 421 kts 175°
2026-05-07 13:31 -19.29762 57.20531 21714 ft 419 kts 175°
2026-05-07 13:31 -19.31737 57.20689 21263 ft 418 kts 175°
2026-05-07 13:32 -19.35578 57.20996 20448 ft 418 kts 175°
2026-05-07 13:32 -19.38499 57.21231 19862 ft 417 kts 175°
2026-05-07 13:32 -19.40418 57.21384 19535 ft 415 kts 175°
2026-05-07 13:32 -19.43296 57.21615 18993 ft 412 kts 175°
2026-05-07 13:33 -19.46135 57.21843 18474 ft 410 kts 175°
2026-05-07 13:33 -19.48972 57.22071 17919 ft 407 kts 175°
2026-05-07 13:33 -19.51782 57.22297 17379 ft 404 kts 175°
2026-05-07 13:33 -19.54553 57.22519 16862 ft 400 kts 175°
2026-05-07 13:34 -19.57312 57.22741 16421 ft 395 kts 174°
2026-05-07 13:34 -19.63603 57.23246 15326 ft 386 kts 174°
2026-05-07 13:34 -19.65380 57.23389 15005 ft 384 kts 174°
2026-05-07 13:35 -19.68055 57.23605 14522 ft 381 kts 174°
2026-05-07 13:35 -19.70672 57.23816 14041 ft 379 kts 174°
2026-05-07 13:35 -19.73292 57.24028 13507 ft 377 kts 174°
2026-05-07 13:35 -19.75891 57.24239 12996 ft 374 kts 174°
2026-05-07 13:36 -19.78474 57.24446 12504 ft 372 kts 174°
2026-05-07 13:36 -19.81041 57.24654 12019 ft 369 kts 174°
2026-05-07 13:36 -19.83622 57.24862 11544 ft 367 kts 174°
2026-05-07 13:36 -19.86141 57.25065 11066 ft 365 kts 174°
2026-05-07 13:37 -19.88652 57.25267 10890 ft 354 kts 174°
2026-05-07 13:37 -19.91050 57.25460 10690 ft 345 kts 173°
2026-05-07 13:37 -19.93403 57.25649 10559 ft 335 kts 174°
2026-05-07 13:37 -19.95699 57.25835 10417 ft 326 kts 174°
2026-05-07 13:38 -19.97942 57.26015 10279 ft 318 kts 173°
2026-05-07 13:38 -20.00118 57.26192 10146 ft 310 kts 173°
2026-05-07 13:38 -20.02241 57.26364 9991 ft 304 kts 173°
2026-05-07 13:38 -20.04309 57.26532 10001 ft 292 kts 173°
2026-05-07 13:39 -20.06303 57.26693 9972 ft 282 kts 173°
2026-05-07 13:39 -20.08226 57.26850 9731 ft 274 kts 173°
2026-05-07 13:39 -20.10130 57.27005 9263 ft 275 kts 173°
2026-05-07 13:39 -20.12038 57.27161 8860 ft 274 kts 173°
2026-05-07 13:40 -20.13915 57.27313 8306 ft 278 kts 173°
2026-05-07 13:40 -20.15835 57.27469 7972 ft 274 kts 174°
2026-05-07 13:40 -20.17733 57.27623 7644 ft 270 kts 173°
2026-05-07 13:40 -20.19529 57.28067 7304 ft 263 kts 149°
2026-05-07 13:41 -20.20876 57.29298 7149 ft 251 kts 130°
2026-05-07 13:41 -20.21921 57.30784 6829 ft 248 kts 124°
2026-05-07 13:41 -20.22867 57.32305 6572 ft 245 kts 123°
2026-05-07 13:41 -20.23803 57.33830 6307 ft 247 kts 123°
2026-05-07 13:42 -20.24747 57.35359 6161 ft 250 kts 123°
2026-05-07 13:42 -20.25702 57.36896 6002 ft 250 kts 123°
2026-05-07 13:42 -20.26643 57.38399 5883 ft 238 kts 123°
2026-05-07 13:42 -20.27538 57.39825 5760 ft 225 kts 123°
2026-05-07 13:43 -20.28393 57.41180 5667 ft 218 kts 123°
2026-05-07 13:43 -20.29238 57.42521 5506 ft 218 kts 123°
2026-05-07 13:43 -20.30064 57.43831 5341 ft 208 kts 123°
2026-05-07 13:43 -20.30846 57.45071 5106 ft 195 kts 123°
2026-05-07 13:44 -20.31578 57.46227 4920 ft 183 kts 122°
2026-05-07 13:44 -20.32269 57.47321 4705 ft 174 kts 122°
2026-05-07 13:44 -20.32932 57.48372 4486 ft 174 kts 122°
2026-05-07 13:44 -20.33606 57.49442 4259 ft 173 kts 122°
2026-05-07 13:45 -20.34287 57.50500 4094 ft 172 kts 121°
2026-05-07 13:45 -20.34914 57.51594 3944 ft 176 kts 117°
2026-05-07 13:45 -20.35500 57.52748 3681 ft 175 kts 116°
2026-05-07 13:45 -20.36043 57.53866 3436 ft 161 kts 117°
2026-05-07 13:46 -20.36526 57.54866 3198 ft 142 kts 117°
2026-05-07 13:46 -20.36985 57.55819 2961 ft 146 kts 117°
2026-05-07 13:46 -20.37437 57.56760 2737 ft 139 kts 117°
2026-05-07 13:46 -20.37862 57.57643 2528 ft 133 kts 117°
2026-05-07 13:47 -20.38282 57.58514 2331 ft 133 kts 117°
2026-05-07 13:47 -20.38710 57.59402 2115 ft 136 kts 116°
2026-05-07 13:47 -20.39142 57.60301 1905 ft 136 kts 116°
2026-05-07 13:47 -20.39573 57.61196 1692 ft 135 kts 116°
2026-05-07 13:48 -20.40003 57.62087 1481 ft 135 kts 116°
2026-05-07 13:48 -20.40432 57.62978 1281 ft 135 kts 117°
2026-05-07 13:48 -20.40862 57.63872 1065 ft 136 kts 117°
2026-05-07 13:48 -20.41296 57.64770 841 ft 137 kts 115°
2026-05-07 13:49 -20.41738 57.65700 611 ft 147 kts 115°
2026-05-07 13:49 -20.42195 57.66666 347 ft 139 kts 118°
2026-05-07 13:49 -20.42616 57.67525 181 ft 119 kts 117°
2026-05-07 13:49 -20.42853 57.68009 157 ft 19 kts 118°
2026-05-07 13:50 -20.42945 57.68061 156 ft 16 kts 204°
2026-05-07 13:50 -20.42988 57.68036 156 ft 0 kts 210°